Weather History for Hoquiam, WA

Change the Weather History Date:

Sunday, June 23, 2013

  Actual Average Record
Temperature  
Mean Temperature 63 °F 58 °F  
Max Temperature 66 °F 64 °F 82 °F (1989)
Min Temperature 59 °F 51 °F 43 °F (2008)
Degree Days  
Heating Degree Days 2 7  
Month to date heating degree days 161 196  
Since 1 June heating degree days 161 196  
Cooling Degree Days 0 0  
Month to date cooling degree days 0 0  
Year to date cooling degree days 3 1  
Since 1 June cooling degree days 0 0  
Growing Degree Days 12 (Base 50)    
Moisture  
Dew Point 59 °F    
Average Humidity 85    
Maximum Humidity 97    
Minimum Humidity 72    
Precipitation  
Precipitation T in 0.07 in 0.69 in (1975)
Month to date precipitation 0.42 1.86  
Year to date precipitation 30.00 34.78  
Sea Level Pressure  
Sea Level Pressure 29.71 in    
Wind  
Wind Speed 5 mph (SE)    
Max Wind Speed 14 mph    
Max Gust Speed 15 mph    
Visibility 7 miles    
Events Rain    
T = Trace of Precipitation, MM = Missing Value Source: NWS Daily Summary

Daily Weather History Graph

Daily Weather History Graph

Search for Another Location

Airport:

Trip Planner

Search our weather history database for the weather conditions in past years. The results will help you decide how hot, cold, wet, or windy it might be!

Date:

Astronomy

Jun. 23, 2013 Rise Set
Actual Time 5:21 AM PDT 9:14 PM PDT
Civil Twilight 4:41 AM PDT 9:54 PM PDT
Nautical Twilight 3:46 AM PDT 10:49 PM PDT
Astronomical Twilight 2:24 AM PDT 12:10 AM PDT
Moon 9:25 PM PDT 5:50 AM PDT
Length of Visible Light 17h 13m
Length of Day
15h 53m
Full, 100% of the Moon is Illuminated
Jun 23
Full
Jun 29
Last Quarter
Jul 8
New
Jul 15
First Quarter
Jul 22
Full

Hourly Weather History & Observations

Time (PDT) Temp. Dew Point Humidity Pressure Visibility Wind Dir Wind Speed Gust Speed Precip Events Conditions
12:53 AM 62.1 °F 54.0 °F 75% 29.86 in 10.0 mi NE 3.5 mph - N/A   Overcast
1:53 AM 60.1 °F 54.0 °F 80% 29.85 in 10.0 mi Calm Calm - N/A   Overcast
2:53 AM 60.1 °F 55.0 °F 83% 29.84 in 10.0 mi Calm Calm - 0.00 in Rain Light Rain
3:53 AM 60.1 °F 55.9 °F 86% 29.83 in 10.0 mi Calm Calm - 0.00 in   Overcast
4:53 AM 61.0 °F 55.0 °F 81% 29.81 in 10.0 mi NNE 3.5 mph - N/A   Overcast
5:53 AM 59.0 °F 55.9 °F 90% 29.81 in 10.0 mi NE 5.8 mph - 0.00 in Rain Light Rain
6:53 AM 59.0 °F 55.9 °F 90% 29.80 in 9.0 mi NE 11.5 mph - 0.00 in   Overcast
7:53 AM 60.1 °F 55.0 °F 83% 29.79 in 10.0 mi NE 6.9 mph - 0.00 in Rain Light Rain
8:53 AM 60.1 °F 55.9 °F 86% 29.78 in 9.0 mi ENE 6.9 mph - 0.00 in Rain Light Rain
9:53 AM 62.1 °F 57.9 °F 86% 29.77 in 10.0 mi NE 8.1 mph - 0.00 in Rain Light Rain
10:53 AM 63.0 °F 59.0 °F 87% 29.76 in 10.0 mi ENE 6.9 mph - 0.00 in Rain Light Rain
11:53 AM 64.0 °F 59.0 °F 84% 29.75 in 9.0 mi East 6.9 mph - 0.00 in Rain Light Rain
12:05 PM 64.4 °F 59.0 °F 83% 29.74 in 8.0 mi ENE 5.8 mph - 0.00 in Rain Light Rain
12:53 PM 66.0 °F 60.1 °F 81% 29.74 in 10.0 mi East 4.6 mph - 0.00 in   Overcast
1:53 PM 63.0 °F 60.1 °F 90% 29.73 in 8.0 mi SW 5.8 mph - 0.00 in Rain Light Rain
2:50 PM 62.6 °F 60.8 °F 94% 29.71 in 2.5 mi SW 9.2 mph - 0.00 in Rain Rain
2:53 PM 62.1 °F 60.1 °F 93% 29.72 in 2.0 mi SW 10.4 mph - 0.00 in Rain Rain
3:15 PM 62.6 °F 60.8 °F 94% 29.71 in 1.2 mi SSW 9.2 mph - N/A Rain Rain
3:22 PM 62.6 °F 60.8 °F 94% 29.70 in 2.5 mi SSW 9.2 mph - N/A Rain Light Rain
3:27 PM 62.6 °F 60.8 °F 94% 29.70 in 5.0 mi SSW 10.4 mph - N/A Rain Light Rain
3:46 PM 62.6 °F 60.8 °F 94% 29.70 in 2.5 mi SW 4.6 mph - N/A Rain Light Rain
3:53 PM 63.0 °F 60.1 °F 90% 29.70 in 6.0 mi SW 3.5 mph - N/A Rain Light Rain
4:53 PM 63.0 °F 61.0 °F 93% 29.70 in 9.0 mi WSW 4.6 mph - N/A Rain Light Rain
5:53 PM 62.1 °F 59.0 °F 90% 29.69 in 10.0 mi South 4.6 mph - N/A Rain Light Rain
6:53 PM 62.1 °F 59.0 °F 90% 29.68 in 9.0 mi South 4.6 mph - N/A Rain Light Rain
7:00 PM 60.8 °F 59.0 °F 94% 29.66 in 7.0 mi South 4.6 mph - N/A Rain Light Rain
7:23 PM 60.8 °F 59.0 °F 94% 29.66 in 2.5 mi South 3.5 mph - N/A Rain Light Rain
7:28 PM 60.8 °F 59.0 °F 94% 29.65 in 4.0 mi South 4.6 mph - N/A Rain Light Rain
7:51 PM 60.8 °F 59.0 °F 94% 29.65 in 10.0 mi Calm Calm - N/A Rain Light Rain
7:53 PM 61.0 °F 59.0 °F 93% 29.66 in 10.0 mi South 3.5 mph - N/A Rain Light Rain
8:00 PM 60.8 °F 59.0 °F 94% 29.64 in 10.0 mi South 3.5 mph - N/A Rain Light Rain
8:33 PM 60.8 °F 59.0 °F 94% 29.64 in 10.0 mi SSE 3.5 mph - N/A   Overcast
8:53 PM 61.0 °F 59.0 °F 93% 29.65 in 10.0 mi Calm Calm - N/A   Overcast
9:40 PM 60.8 °F 59.0 °F 94% 29.64 in 4.0 mi SE 3.5 mph - N/A Rain Light Rain
9:53 PM 61.0 °F 59.0 °F 93% 29.65 in 7.0 mi East 3.5 mph - N/A Rain Light Rain
10:01 PM 60.8 °F 59.0 °F 94% 29.64 in 6.0 mi East 3.5 mph - N/A Rain Light Rain
10:08 PM 60.8 °F 59.0 °F 94% 29.64 in 4.0 mi East 3.5 mph - N/A Rain Light Rain
10:17 PM 60.8 °F 60.8 °F 100% 29.63 in 6.0 mi East 4.6 mph - N/A Rain Light Rain
10:40 PM 60.8 °F 59.0 °F 94% 29.63 in 8.0 mi ENE 3.5 mph - N/A Rain Light Rain
10:53 PM 60.1 °F 60.1 °F 100% 29.64 in 10.0 mi East 4.6 mph - N/A   Overcast
11:24 PM 60.8 °F 59.0 °F 94% 29.62 in 7.0 mi SE 4.6 mph - N/A Rain Light Rain
11:40 PM 60.8 °F 57.2 °F 88% 29.62 in 4.0 mi ESE 4.6 mph - N/A   Overcast
11:53 PM 60.1 °F 59.0 °F 96% 29.63 in 4.0 mi SE 4.6 mph - N/A Rain Light Rain